When you browse on this site, cookies collect data to enhance your experience and personalize the content and advertising you see.
Visit our Privacy Policy to learn more. By continuing to use the site, you agree to this use of cookies and data.
  • In United Kingdom
  • List of Countries
  • For 7 days
  • Water Temperature
  • Satellite Maps
  • Weather Map
  • Weather Widgets
  • user-avatar
    Login

    Hourly Weather Odienne

    Today, 20 February, Wednesday

    Time Temperature Precipitation Wind Pressure Humidity
    00:00 +33°C° 0 mm 3 mps 722 mmHg 39%
    01:00 +32°C° 0 mm 4 mps 721 mmHg 48%
    02:00 +30°C° 0 mm 4 mps 721 mmHg 58%
    03:00 +29°C° 0.8 mm 4 mps 722 mmHg 61%
    04:00 +29°C° 0.8 mm 3 mps 722 mmHg 63%
    05:00 +28°C° 0.8 mm 2 mps 722 mmHg 66%
    06:00 +29°C° 0 mm 2 mps 723 mmHg 61%
    07:00 +30°C° 0 mm 2 mps 723 mmHg 57%
    08:00 +31°C° 0 mm 3 mps 724 mmHg 52%
    09:00 +35°C° 0 mm 2 mps 724 mmHg 43%
    10:00 +36°C° 0 mm 1 mps 724 mmHg 35%
    11:00 +40°C° 0 mm 1 mps 724 mmHg 26%
    12:00 +39°C° 0 mm 1 mps 723 mmHg 26%
    13:00 +39°C° 0 mm 2 mps 722 mmHg 26%
    14:00 +38°C° 0 mm 2 mps 721 mmHg 27%
    15:00 +36°C° 0 mm 1 mps 721 mmHg 28%
    16:00 +35°C° 0 mm 1 mps 721 mmHg 30%
    17:00 +35°C° 0 mm 1 mps 721 mmHg 32%
    18:00 +34°C° 0 mm 1 mps 722 mmHg 33%
    19:00 +33°C° 0 mm 1 mps 722 mmHg 35%
    20:00 +33°C° 0 mm 1 mps 723 mmHg 37%
    21:00 +30°C° 0 mm 0 mps 723 mmHg 37%
    22:00 +30°C° 0 mm 0 mps 723 mmHg 38%
    23:00 +29°C° 0 mm 0 mps 723 mmHg 39%

    Tomorrow, 21 February, Thursday

    Time Temperature Precipitation Wind Pressure Humidity
    00:00 +28°C° 0.5 mm 0 mps 723 mmHg 45%
    01:00 +29°C° 0.5 mm 1 mps 723 mmHg 51%
    02:00 +28°C° 0.5 mm 1 mps 722 mmHg 57%
    03:00 +28°C° 0 mm 1 mps 722 mmHg 58%
    04:00 +27°C° 0 mm 1 mps 722 mmHg 60%
    05:00 +27°C° 0 mm 1 mps 723 mmHg 61%
    06:00 +29°C° 0 mm 1 mps 723 mmHg 54%
    07:00 +29°C° 0 mm 0 mps 724 mmHg 47%
    08:00 +30°C° 0 mm 0 mps 725 mmHg 41%
    09:00 +34°C° 0 mm 1 mps 725 mmHg 36%
    10:00 +36°C° 0 mm 1 mps 725 mmHg 31%
    11:00 +39°C° 0 mm 2 mps 725 mmHg 26%
    12:00 +40°C° 0 mm 2 mps 724 mmHg 24%
    13:00 +41°C° 0 mm 2 mps 723 mmHg 22%
    14:00 +41°C° 0 mm 2 mps 722 mmHg 20%
    15:00 +41°C° 0 mm 2 mps 722 mmHg 21%
    16:00 +40°C° 0 mm 2 mps 722 mmHg 21%
    17:00 +39°C° 0 mm 1 mps 722 mmHg 22%
    18:00 +37°C° 0.4 mm 2 mps 723 mmHg 25%
    19:00 +35°C° 0.4 mm 2 mps 723 mmHg 28%
    20:00 +32°C° 0.4 mm 2 mps 724 mmHg 31%
    21:00 +32°C° 0.1 mm 2 mps 724 mmHg 29%
    22:00 +31°C° 0.1 mm 1 mps 724 mmHg 28%
    23:00 +31°C° 0.1 mm 1 mps 724 mmHg 26%

    Day after tomorrow, 22 February, Friday

    Time Temperature Precipitation Wind Pressure Humidity
    00:00 +30°C° 0 mm 1 mps 723 mmHg 26%
    01:00 +30°C° 0 mm 1 mps 723 mmHg 26%
    02:00 +29°C° 0 mm 1 mps 722 mmHg 26%
    03:00 +29°C° 0 mm 1 mps 722 mmHg 26%
    04:00 +27°C° 0 mm 0 mps 722 mmHg 25%
    05:00 +27°C° 0 mm 0 mps 723 mmHg 25%
    06:00 +30°C° 0 mm 1 mps 723 mmHg 23%
    07:00 +31°C° 0 mm 1 mps 724 mmHg 21%
    08:00 +34°C° 0 mm 2 mps 725 mmHg 19%
    09:00 +35°C° 0 mm 2 mps 725 mmHg 16%
    10:00 +37°C° 0 mm 3 mps 725 mmHg 14%
    11:00 +38°C° 0 mm 4 mps 724 mmHg 11%
    12:00 +39°C° 0 mm 3 mps 724 mmHg 11%
    13:00 +40°C° 0 mm 3 mps 723 mmHg 10%
    14:00 +40°C° 0 mm 3 mps 722 mmHg 10%
    15:00 +40°C° 0 mm 3 mps 721 mmHg 10%
    16:00 +39°C° 0 mm 3 mps 721 mmHg 11%
    17:00 +39°C° 0 mm 2 mps 721 mmHg 11%
    18:00 +37°C° 0 mm 2 mps 722 mmHg 12%
    19:00 +35°C° 0 mm 2 mps 722 mmHg 13%
    20:00 +32°C° 0 mm 2 mps 723 mmHg 14%
    21:00 +31°C° 0 mm 2 mps 723 mmHg 14%
    22:00 +30°C° 0 mm 2 mps 723 mmHg 14%
    23:00 +30°C° 0 mm 2 mps 723 mmHg 15%

    23 February, Saturday

    Time Temperature Precipitation Wind Pressure Humidity
    00:00 +29°C° 0 mm 2 mps 723 mmHg 15%
    01:00 +29°C° 0 mm 2 mps 722 mmHg 15%
    02:00 +28°C° 0 mm 1 mps 721 mmHg 15%
    03:00 +27°C° 0 mm 1 mps 722 mmHg 16%
    04:00 +26°C° 0 mm 1 mps 722 mmHg 17%
    05:00 +26°C° 0 mm 1 mps 722 mmHg 17%
    06:00 +27°C° 0 mm 1 mps 723 mmHg 15%
    07:00 +29°C° 0 mm 1 mps 724 mmHg 13%
    08:00 +31°C° 0 mm 2 mps 724 mmHg 12%
    09:00 +34°C° 0 mm 2 mps 724 mmHg 10%
    10:00 +36°C° 0 mm 2 mps 724 mmHg 8%
    11:00 +38°C° 0 mm 2 mps 724 mmHg 7%
    12:00 +39°C° 0 mm 2 mps 723 mmHg 7%
    13:00 +40°C° 0 mm 2 mps 722 mmHg 7%
    14:00 +41°C° 0 mm 2 mps 721 mmHg 6%
    15:00 +40°C° 0 mm 2 mps 721 mmHg 7%
    16:00 +39°C° 0 mm 1 mps 721 mmHg 8%
    17:00 +37°C° 0 mm 1 mps 720 mmHg 9%
    18:00 +35°C° 0 mm 1 mps 721 mmHg 9%
    19:00 +33°C° 0 mm 1 mps 721 mmHg 10%
    20:00 +31°C° 0 mm 1 mps 722 mmHg 11%
    21:00 +30°C° 0 mm 1 mps 722 mmHg 11%
    22:00 +30°C° 0 mm 1 mps 722 mmHg 12%
    23:00 +29°C° 0 mm 1 mps 721 mmHg 12%

    24 February, Sunday

    Time Temperature Precipitation Wind Pressure Humidity
    00:00 +28°C° 0 mm 1 mps 721 mmHg 12%
    01:00 +27°C° 0 mm 1 mps 721 mmHg 12%
    02:00 +26°C° 0 mm 1 mps 720 mmHg 12%
    03:00 +26°C° 0 mm 1 mps 721 mmHg 13%
    04:00 +23°C° 0 mm 0 mps 721 mmHg 13%
    05:00 +22°C° 0 mm 0 mps 721 mmHg 14%
    06:00 +26°C° 0 mm 1 mps 722 mmHg 12%
    07:00 +28°C° 0 mm 1 mps 723 mmHg 11%
    08:00 +30°C° 0 mm 1 mps 724 mmHg 9%
    09:00 +32°C° 0 mm 1 mps 723 mmHg 8%
    10:00 +36°C° 0 mm 2 mps 723 mmHg 7%
    11:00 +38°C° 0 mm 2 mps 723 mmHg 6%
    12:00 +39°C° 0 mm 2 mps 722 mmHg 6%
    13:00 +40°C° 0 mm 1 mps 721 mmHg 6%
    14:00 +41°C° 0 mm 1 mps 721 mmHg 6%
    15:00 +40°C° 0 mm 1 mps 720 mmHg 7%
    16:00 +39°C° 0 mm 1 mps 720 mmHg 7%
    17:00 +37°C° 0 mm 1 mps 720 mmHg 8%
    18:00 +35°C° 0 mm 1 mps 721 mmHg 9%
    19:00 +33°C° 0 mm 1 mps 721 mmHg 9%
    20:00 +31°C° 0 mm 1 mps 721 mmHg 10%
    21:00 +30°C° 0 mm 1 mps 721 mmHg 10%
    22:00 +29°C° 0 mm 1 mps 721 mmHg 10%
    23:00 +28°C° 0 mm 1 mps 721 mmHg 11%

    25 February, Monday

    Time Temperature Precipitation Wind Pressure Humidity
    00:00 +27°C° 0 mm 1 mps 721 mmHg 11%
    01:00 +27°C° 0 mm 1 mps 720 mmHg 11%
    02:00 +26°C° 0 mm 1 mps 720 mmHg 12%
    03:00 +25°C° 0 mm 1 mps 720 mmHg 12%
    04:00 +25°C° 0 mm 1 mps 720 mmHg 12%
    05:00 +22°C° 0 mm 0 mps 721 mmHg 12%
    06:00 +26°C° 0 mm 1 mps 721 mmHg 11%
    07:00 +28°C° 0 mm 1 mps 722 mmHg 10%
    08:00 +30°C° 0 mm 1 mps 723 mmHg 9%
    09:00 +33°C° 0 mm 1 mps 722 mmHg 8%
    10:00 +36°C° 0 mm 2 mps 722 mmHg 7%
    11:00 +39°C° 0 mm 2 mps 722 mmHg 6%
    12:00 +40°C° 0 mm 2 mps 721 mmHg 5%
    13:00 +41°C° 0 mm 1 mps 721 mmHg 5%
    14:00 +43°C° 0 mm 1 mps 720 mmHg 5%
    15:00 +41°C° 0 mm 1 mps 720 mmHg 6%
    16:00 +37°C° 0 mm 0 mps 720 mmHg 7%
    17:00 +36°C° 0 mm 0 mps 720 mmHg 8%
    18:00 +33°C° 0 mm 0 mps 720 mmHg 9%
    19:00 +33°C° 0 mm 1 mps 721 mmHg 9%
    20:00 +31°C° 0 mm 1 mps 721 mmHg 10%
    21:00 +30°C° 0 mm 1 mps 721 mmHg 10%
    22:00 +30°C° 0 mm 1 mps 721 mmHg 10%
    23:00 +29°C° 0 mm 1 mps 721 mmHg 11%
    Show more